sat.trackr.live / text

‹ back to catalog

STARLINK-32410

NORAD 61887 · 2024-204P

PAYLOAD ACTIVE UNKNOWN

§ Identity

Operator
Country
US
Launch date
2024-11-09
Launch site
AFWTR
Launch vehicle
Mass (kg)
RCS (m²)

Purposes: comms

External: N2YO · Heavens-Above · Gunter

§ Orbital elements

Epoch: 2026-09-20T09:55:03.445248Z

Period
93.85 min
Inclination
53.1604°
Eccentricity
0.0001360
Mean motion
15.34388583 rev/d
Perigee alt
461.8 km
Apogee alt
463.7 km
Semi-major
6,840.9 km
B*
9.5819e-6
RAAN
298.1412°
Arg perigee
91.6662°
Mean anomaly
268.4496°
Rev number
10,497

§ Raw data

STARLINK-324101 61887U 24204P   26263.41323432 -.00000053  00000+0  95819-5 0  99982 61887  53.1604 298.1412 0001360  91.6662 268.4496 15.34388583104976

JSON: /api/v1/satellites/61887 · /tle

For live sub-satellite position, see the globe view (requires WebGL).

§ Visibility from observer

Set your observer location to see the next 7 days of passes ≥ 10°. The values pass through the URL so the page stays shareable.

No JS? Fill the form by hand. The geolocation button needs JavaScript.